Weather History for Cape Race, NL

Change the Weather History Date:

Thursday, February 14, 2013

  Actual Average Record
Temperature  
Mean Temperature 31 °F -  
Max Temperature 35 °F - - ()
Min Temperature 27 °F - - ()
Degree Days  
Heating Degree Days 34    
Moisture  
Dew Point 27 °F    
Average Humidity 82    
Maximum Humidity 90    
Minimum Humidity 68    
Precipitation  
Precipitation 0.00 in - - ()
Sea Level Pressure  
Sea Level Pressure 29.58 in    
Wind  
Wind Speed 19 mph ()    
Max Wind Speed 30 mph    
Max Gust Speed 39 mph    
T = Trace of Precipitation, MM = Missing Value Source: Averaged Metar Reports

Daily Weather History Graph

Daily Weather History Graph

Search for Another Location

Airport:

Trip Planner

Search our weather history database for the weather conditions in past years. The results will help you decide how hot, cold, wet, or windy it might be!

Date:

Astronomy

Feb. 14, 2013 Rise Set
Actual Time 7:07 AM NST 5:26 PM NST
Civil Twilight 6:36 AM NST 5:57 PM NST
Nautical Twilight 6:00 AM NST 6:32 PM NST
Astronomical Twilight 5:25 AM NST 7:07 PM NST
Moon 8:45 AM NST (2/14) 10:45 PM NST (2/14)
Length of Visible Light 11h 21m
Length of Day
10h 18m
Waxing Crescent, 21% of the Moon is Illuminated
Feb 14
Waxing Crescent
Feb 17
First Quarter
Feb 25
Full
Mar 4
Last Quarter
Mar 11
New

Hourly Weather History & Observations

Time (NST) Temp. Windchill Dew Point Humidity Pressure Visibility Wind Dir Wind Speed Gust Speed Precip Events Conditions
12:30 AM 29.8 °F 14.7 °F 26.1 °F 86% 29.46 in - West 29.9 mph 39.1 mph N/A   Unknown
1:30 AM 30.4 °F 15.9 °F 26.4 °F 85% 29.47 in - West 27.6 mph 36.8 mph N/A   Unknown
2:30 AM 30 °F - 26 °F 78% 29.49 in - West 26.5 mph - -  
2:30 AM 29.7 °F 15.2 °F 25.7 °F 85% 29.49 in - West 26.5 mph 33.4 mph N/A   Unknown
3:30 AM 28.9 °F 14.3 °F 25.5 °F 87% 29.51 in - West 26.5 mph 34.5 mph N/A   Unknown
4:30 AM 30.0 °F 15.7 °F 26.6 °F 87% 29.53 in - WNW 26.5 mph 32.2 mph N/A   Unknown
5:30 AM 30 °F - 26 °F 81% 29.55 in - West 27.6 mph - -  
5:30 AM 30.0 °F 15.4 °F 26.4 °F 86% 29.55 in - West 27.6 mph 34.5 mph N/A   Unknown
6:30 AM 30.4 °F 17.7 °F 26.6 °F 86% 29.57 in - West 20.7 mph 28.8 mph N/A   Unknown
7:30 AM 30.4 °F 16.7 °F 27.1 °F 88% 29.58 in - West 24.2 mph - N/A   Unknown
8:30 AM 31 °F - 27 °F 79% 29.59 in - WNW 23.0 mph - -  
8:30 AM 31.1 °F 18.0 °F 27.0 °F 85% 29.59 in - WNW 23.0 mph 31.1 mph N/A   Unknown
9:30 AM 30.6 °F 17.0 °F 25.9 °F 83% 29.61 in - West 24.2 mph 29.9 mph N/A   Unknown
10:30 AM 31.3 °F 17.1 °F 27.3 °F 85% 29.62 in - West 27.6 mph 33.4 mph N/A   Unknown
11:30 AM 34 °F - 28 °F 69% 29.62 in - West 19.6 mph - -  
11:30 AM 33.6 °F 22.2 °F 27.7 °F 79% 29.62 in - West 19.6 mph 26.5 mph N/A   Unknown
12:30 PM 34.0 °F 24.2 °F 27.5 °F 77% 29.62 in - West 15.0 mph - N/A   Unknown
1:30 PM 34.9 °F 24.9 °F 27.9 °F 76% 29.60 in - West 16.1 mph - N/A   Unknown
2:30 PM 35 °F - 28 °F 68% 29.57 in - NNW 17.3 mph - -  
2:30 PM 35.1 °F 24.8 °F 28.2 °F 76% 29.57 in - NNW 17.3 mph - N/A   Unknown
3:30 PM 34.2 °F 24.8 °F 27.7 °F 77% 29.60 in - NNW 13.8 mph - N/A   Unknown
4:30 PM 33.4 °F 29.1 °F 27.0 °F 77% 29.60 in - NNW 4.6 mph - N/A   Unknown
5:30 PM 30 °F - 26 °F 80% 29.60 in - NNW 5.8 mph - -  
5:30 PM 29.8 °F 23.9 °F 26.2 °F 86% 29.60 in - NNW 5.8 mph - N/A   Unknown
6:30 PM 30.0 °F 22.4 °F 27.3 °F 90% 29.61 in - NNW 8.1 mph - N/A   Unknown
7:30 PM 30.7 °F 23.3 °F 26.8 °F 85% 29.60 in - NNE 8.1 mph - N/A   Unknown
8:30 PM 31 °F - 27 °F 77% 29.61 in - North 9.2 mph - -  
8:30 PM 30.6 °F 22.4 °F 26.6 °F 85% 29.61 in - North 9.2 mph - N/A   Unknown
9:30 PM 30.7 °F 22.0 °F 27.7 °F 88% 29.64 in - NNW 10.4 mph - N/A   Unknown
10:30 PM 30.6 °F 21.2 °F 27.9 °F 90% 29.63 in - NNW 11.5 mph - N/A   Unknown
11:30 PM 31 °F - 28 °F 83% 29.64 in - NNW 13.8 mph - -  
11:30 PM 30.6 °F 20.2 °F 27.9 °F 90% 29.64 in - NNW 13.8 mph - N/A   Unknown